Location: Berlin
(38.3226°N, 75.2177°W)
Time: 22:50:02
(UTC+00:00)

BREEZE-M DEB (TANK) - Pass Details

Date: 26 October 2020
Orbit: 305 x 13930 km, 46.1° (Epoch: 24 November)

Event Time Altitude Azimuth Distance (km) Brightness Sun altitude
Exits shadow 10:03:28 44° 278° (W) 538 1.8 -15.9°
Maximum altitude 10:04:07 66° 213° (SSW) 384 1.3 -15.7°
Drops below altitude 10° 10:06:15 10° 129° (SE) 1,178 4.9 -15.3°
Sets 10:07:55 0° 126° (SE) 2,050 6.3 -15.0°
